Flag for Germany Weather past 2 weeks in Coburg, Bavaria, Germany

Now
28 °F

Overcast.


Feels Like: 28 °F
Forecast: 25 / 34 °F
Wind: 2 mph from South

Location: Bamberg

Current Time: Feb 1, 2015 at 6:10:27 AM

Latest Report: Feb 1, 2015 at 6:00 AM


Visibility: 2 mi

Pressure: 29.21 "Hg

Humidity: 99%

Dew point: 28 °F

Location of CoburgLocation

Historic Weather in Coburg — Graph

°F

Coburg temperature yesterday

Maximum temperature yesterday: 35 °F (at 2:00 PM)
Minimum temperature yesterday: 27 °F (at 2:00 AM)
Average temperature yesterday: 32 °F

Past Weeks' High & Low Weather Summary

 TemperatureHumidityPressure
High41 °F (Jan 17, 12:00 PM)100% (Jan 18, 1:00 AM)30.41 "Hg (Jan 18, 1:00 AM)
Low26 °F (Feb 1, 5:00 AM)64% (Jan 29, 2:00 PM)28.73 "Hg (Jan 30, 3:00 AM)
Average34 °F88%29.86 "Hg
* Reported Jan 17 5:00 AM — Feb 1 5:00 AM, Coburg, Weather by CustomWeather, © 2014

Note: Actual official high and low records may vary slightly from our data, if they occured in-between our weather recording intervals... More about our weather records

Advertising

Coburg weather history for previous 24 hours

 ConditionsComfort  
Time TempWeatherWind HumidityBarometerVisibility
5:00 AM
Feb 1
26 °FClear.2 mph96%29.21 "Hg2 mi
4:00 AM27 °FClear.1 mph100%29.21 "Hg2 mi
3:00 AM31 °FFog.No wind96%29.18 "Hg3 mi
2:00 AM31 °FFog.1 mph96%29.18 "Hg2 mi
1:00 AM33 °FPassing clouds.2 mph95%29.18 "Hg4 mi
12:00 AM32 °FLight snow. Passing clouds.2 mph96%29.18 "Hg2 mi
11:00 PM
Jan 31
32 °FLight snow. Low clouds.2 mph96%29.18 "Hg1 mi
10:00 PM32 °FLight snow. Overcast.1 mph92%29.18 "Hg1 mi
9:00 PM32 °FOvercast.2 mph93%29.15 "Hg6 mi
8:00 PM32 °FOvercast.1 mph91%29.15 "Hg10 mi
7:00 PM32 °FOvercast.1 mph89%29.15 "Hg11 mi
6:00 PM32 °FOvercast.2 mph90%29.12 "Hg11 mi
5:00 PM33 °FOvercast.3 mph87%29.12 "Hg11 mi
4:00 PM35 °FOvercast.2 mph82%29.09 "Hg14 mi
3:00 PM35 °FFog.2 mph81%29.09 "Hg12 mi
2:00 PM35 °FOvercast.2 mph80%29.09 "Hg19 mi
1:00 PM35 °FOvercast.3 mph80%29.06 "Hg22 mi
12:00 PM35 °FOvercast.3 mph80%29.06 "Hg19 mi
11:00 AM34 °FOvercast.3 mph84%29.06 "Hg19 mi
10:00 AM33 °FPartly sunny.2 mph85%29.03 "Hg17 mi
9:00 AM32 °FLight snow. Scattered clouds.2 mph93%29.03 "Hg5 mi
8:00 AM31 °FLight snow. Low clouds.2 mph95%29.00 "Hg1 mi
7:00 AM31 °FLight snow. Passing clouds.2 mph92%29.00 "Hg1 mi
6:00 AM31 °FOvercast.3 mph90%29.00 "Hg7 mi
Weather by CustomWeather, © 2014

See weather overviewHow to use our weather pages